Regional Weather Roundup
Issued by NWS Albany, NY

Current Version | Previous Version | Text Only | Print | Product List | Glossary On
Versions: 1 2 3 4 5 6 7 8 9 10 11 12 13 14 15 16 17 18 19 20 21 22 23 24 25 26 27 28 29 30 31 32 33 34 35 36 37 38 39 40 41 42 43 44 45 46 47 48 49 50
000
ASUS41 KALY 082110
RWRALY

NEW YORK STATE HOURLY WEATHER ROUNDUP
NATIONAL WEATHER SERVICE ALBANY NY
500 PM EDT SAT AUG 08 2020

NOTE: "FAIR" INDICATES FEW OR NO CLOUDS BELOW 12,000 FEET WITH NO
SIGNIFICANT WEATHER AND/OR NO OBSTRUCTIONS TO VISIBILITY.

NYZ032-033-038>043-046>054-057>066-NYZ062>081-082-084-082200-
EAST


CITY           SKY/WX    TMP DP  RH WIND       PRES   REMARKS
ALBANY         MOSUNNY   80  63  55 SW7       30.09F
GLENS FALLS    MOSUNNY   83  65  54 S8        30.08F
POUGHKEEPSIE   SUNNY     86  63  45 W5        30.08F
NEWBURGH       MOSUNNY   82  64  54 S3        30.11F
WHITE PLAINS   MOSUNNY   81  65  58 SE9       30.12S
ISLIP          PTSUNNY   76  69  79 S8        30.12F
NEW YORK CITY  PTSUNNY   82  67  60 S10       30.11S
CENTRAL PARK     N/A     79  69  71 SE8       30.14S
$$

NYZ005>009-017-018-044>046-055-056-082200-
CENTRAL


CITY           SKY/WX    TMP DP  RH WIND       PRES   REMARKS
FULTON         PTSUNNY   83  69  62 VRB7      30.10F
SYRACUSE       PTSUNNY   84  64  50 W7        30.08F
ROME           MOSUNNY   82  64  54 SW7       30.09F
ELMIRA         MOSUNNY   85  61  44 W8        30.10F
BINGHAMTON     SUNNY     80  61  52 NW6       30.14F
MONTICELLO     SUNNY     81  64  56 VRB5      30.16F
$$

NYZ026>034-041>043-087-082200-
NORTH


CITY           SKY/WX    TMP DP  RH WIND       PRES   REMARKS
WATERTOWN      SUNNY     81  65  58 W7        30.08F
FORT DRUM      NOT AVBL
OGDENSBURG     FAIR      84  61  45 W5        30.05F
MASSENA        SUNNY     83  61  47 W7        30.08F
SARANAC LAKE   MOSUNNY   80  55  42 VRB6      30.13F
PLATTSBURGH    SUNNY     81  64  56 VRB6      30.07F
$$

NYZ001>004-010>016-019>021-085-082200-
WEST


CITY           SKY/WX    TMP DP  RH WIND       PRES   REMARKS
NIAGARA FALLS  MOSUNNY   81  49  32 VRB5      30.12S
BUFFALO        MOSUNNY   82  56  40 S13       30.13S
DUNKIRK        SUNNY     79  51  37 W7        30.15S
JAMESTOWN      SUNNY     74  55  51 NW9       30.19S
WELLSVILLE     PTSUNNY   76  59  55 SW3       30.19S
ROCHESTER      PTSUNNY   77  62  59 N8        30.12S
PENN YAN       SUNNY     83  66  56 VRB3      30.11F
$$

             KEY
       WCI = WIND CHILL INDEX
       VSB = VISIBILITY
       HX  = HEAT INDEX
$$




USA.gov is the U.S. government's official web portal to all federal, state and local government web resources and services.